Showing default

SPACEMOBILE-003, 61045

Orbit data source: Space-Track

SPACEMOBILE-003, 61045 is a payload satellite owned by AST & Science (US) in LEO that was launched on Thu, 12 Sep 2024 UTC via an FALCON 9 launch vehicle from the Air Force Eastern Test Range (AFETR). Payload-class satellites include a variety of spacecraft equipped with specific instruments for various scientific and technological missions. These include communications satellites like Starlink; space stations such as the ISS; scientific satellites like the Hubble; Earth observation satellites from companies like Planet Labs, Umbra, and HawkEye 360; GPS; miniature CubeSats for education and research; and military/defense satellites.

Loading next visibility...
Identifier
61045, 2024-163A
Orbit
LEO
Country
Flag of USUS
Related business
Manufacturer
AST & Science
Mission
Operational Commercial Communications
Bus & Motor
BW3, Unknown motor
Mass
1,500 kg wet, 1,500 kg dry
Launch date (UTC)
2024-09-12 (1 year ago)
Launch vehicle
FALCON 9
Launch site
Air Force Eastern Test Range (AFETR)
Object type
Payload
Rocket body
Debris
Shape & HBR
Box + 1 Plate, 6.5 m
Radar Cross Section
32.590 m², Large (>1 m²)

Expand to show TLE details & history
Last TLE update: 18 hours ago

TLE from 18 hours ago
0 SPACEMOBILE-003
1 61045U 24163A   25309.14937638  .00005210  00000-0  24676-3 0  9998
2 61045  52.9771 259.9898 0010798 156.9869 203.1611 15.20921404 63672
Epoch: 2025-11-05T03:35Z
TLE epoch observation values (Epoch: 2025-11-05T03:35:06.119Z)
Latitude
-0.00001°
Longitude
161.5881°
Altitude
510.769 km
Speed
7.606 km/s
True Right ascension
17h 19m 57s
True Declination
0° 00' 00"
Sunlit
Object was in daylight at epoch
Visualization orbit readout
Latitude
Unknown
Longitude
Unknown
Altitude
Unknown
Speed
Unknown
Apparent Right ascension
Unknown
Apparent Declination
Unknown
Sunlit
N/A
Visualization observer readout
Local Sidereal Time
18:00:56
Azimuth
Unknown
Elevation
Unknown
Doppler factor
Unknown
Orbital elements
Apogee altitude
510.776 km
Perigee altitude
495.914 km
Semi-major axis
6,881.482 km
Eccentricity
0.00108
Inclination
52.9771°
RAAN
259.9898°
Arg. of periapsis
156.9869°
True anomaly
203.11249°
Mean anomaly
203.1611°
Eccentric anomaly
203.13679°
Mean motion
3.80207 °/min
Orbital period
94.69 mins
BSTAR
0.00024676
Loading maneuver chart data...
Computing Atmospheric mass density...
Loading historical data...
Loading historical data...
Loading historical data...
Loading historical data...
Loading historical data...
Loading historical data...
Loading historical data...

Documentation

Showing up to 5 results
|